Regional Weather Roundup
Issued by NWS Wakefield, VA

Home | Current Version | Previous Version | Text Only | Print | Product List | Glossary Off
Versions: 1 2 3 4 5 6 7 8 9 10 11 12 13 14 15 16 17 18 19 20 21 22 23 24 25 26 27 28 29 30 31 32 33 34 35 36 37 38 39 40 41 42 43 44 45 46 47 48 49 50

000
ASUS41 KAKQ 221710
RWRAKQ

REGIONAL WEATHER ROUNDUP
NATIONAL WEATHER SERVICE WAKEFIELD VA
1200 PM EST MON DEC 22 2014

Note: "fair" indicates few or no clouds below 12,000 feet with no
significant weather and/or obstructions to visibility. * = Denotes
station may not report precipitation (e.g., rain,snow,etc.),
thunder or fog.

VAZ042-051-052>054-056-221800-
NORTHERN VIRGINIA

CITY           SKY/WX    TMP DP  RH WIND       PRES   REMARKS
WASH NATIONAL  LGT RAIN  39  28  64 N5        30.28F
DULLES         LGT RAIN  33  27  78 N6        30.26F
FORT BELVOIR   NOT AVBL
QUANTICO       LGT RAIN  36  31  82 NE8       30.25F
FREDERICKSBRG* RAIN      36  34  93 N5        30.23F
STAFFORD*      RAIN      35  35 100 N3        30.27F
WARRENTON      HVY RAIN  35  35 100 N6        30.23F
CULPEPER*      RAIN      36  34  93 N6        30.24F
MANASSAS*      CLOUDY    36  30  80 N5        30.27  FOG
LEESBURG*      MIX PCPN  32  32 100 NE6       30.25F
WINCHESTER     LGT RAIN  34  28  80 NE3       30.23F
FRONT ROYAL*   CLOUDY    32  32 100 NE3       30.21F
LURAY*         LGT RAIN  34  34 100 N5        30.19F
$$

VAZ048-049-060>072-079>083-221800-
CENTRAL AND SOUTH CENTRAL VIRGINIA

CITY           SKY/WX    TMP DP  RH WIND       PRES   REMARKS
RICHMOND       LGT RAIN  37  36  93 NE10      30.17F FOG
CHESTERFIELD*  CLOUDY    37  25  60 N8        30.18F
PETERSBURG*    CLOUDY    38  38  97 N8        30.16F FOG
HANOVER        MIX PCPN  35  34  96 VRB5      30.20F FOG
TAPPAHANNOCK*  DRIZZLE   37  34  87 N6        30.21F
QUINTON*       CLOUDY    37  36  97 NE5       30.18F
CHARLOTTSVILLE FRZ RAIN  33  31  92 N6        30.20F VSB 1
GORDONSVILLE*  CLOUDY    32  31  94 N6        30.21F FOG
ORANGE*        LGT RAIN  34  32  93 NW5       30.24F
LOUISA*        MIX PCPN  34  32  93 N6        30.19F
BUMPASS*       CLOUDY    33  32  95 N5        30.20F VSB 1
FARMVILLE*     DRIZZLE   36  36 100 NE10      30.17F
CREWE*         CLOUDY    35  33  94 N3        30.17F VSB 1
FORT PICKETT*  CLOUDY    36  35  97 N8        30.15F
CHASE CITY*    CLOUDY    37  37 100 N8        30.15F
CLARKSVILLE*   CLOUDY    36  34  93 N6        30.15F
SOUTH HILL*    CLOUDY    36  35  96 N9        30.20F
LAWRENCEVILLE* CLOUDY    37  36  99 CALM      30.13F
EMPORIA*       CLOUDY    37  36  93 N7        30.15F FOG
$$

VAZ088>098-221800-
SOUTHEAST VIRGINIA

CITY           SKY/WX    TMP DP  RH WIND       PRES   REMARKS
NORFOLK        RAIN      47  44  90 NE16      30.11F
VIRGINIA BEACH LGT RAIN  50  47  89 NE12G22   30.10F FOG
NORFOLK NAVAL  LGT RAIN  49  44  83 NE16      30.13F FOG
WEST POINT*    CLOUDY    41  38  89 NE5       30.19F
SALUDA*        CLOUDY    39  37  93 NE8       30.18F
NEWPORT NEWS   LGT RAIN  45  41  86 NE10      30.14F FOG
LANGLEY AFB    NOT AVBL
FORT EUSTIS    NOT AVBL
WILLIAMSBURG*  CLOUDY    43  43 100 NE5       30.16F VSB 1
HR EXEC AP*    CLOUDY    46  45  93 NE13G18   30.13F
FRANKLIN*      CLOUDY    43 N/A N/A NE9       30.11F
WAKEFIELD      CLOUDY    41  39  93 N9        30.12F
$$

VAZ020-022-025-037-045-221800-
WEST CENTRAL AND SOUTHWEST VIRGINIA

CITY           SKY/WX    TMP DP  RH WIND       PRES   REMARKS
STAUNTON*      RAIN      34  31  91 N3        30.19F
WAYNESBORO*    CLOUDY    32  31  96 N3        30.16F
HOT SPRINGS VA FOG       32  32 100 SE6       30.03F VSB<1/4
LYNCHBURG      LGT RAIN  33  32  96 NE12      30.19F FOG     WCI  24
DANVILLE       CLOUDY    36  33  89 NE10      30.17F FOG
SOUTH BOSTON*  CLOUDY    35  33  94 NE5       30.17F
MARTINSVILLE   CLOUDY    36  36 100 N8        30.18F FOG
ROANOKE        CLOUDY    35  34  96 CALM      30.19F FOG
BLACKSBURG     CLOUDY    33  32  96 SE5       30.14F FOG
DUBLIN*        CLOUDY    36  35  97 E6        30.11F FOG
MARION*        CLOUDY    37  34  86 E8        30.09F FOG
HILLSVILLE*    CLOUDY    34  34  99 CALM      30.07F FOG
RICHLANDS*     SUNNY     48  36  63 SE15G21   29.98F
WISE*          PTSUNNY   50  37  62 SE3       29.98F
ABINGDON*      SUNNY     51  40  66 E13       29.99F
$$

MDZ021>025-VAZ099-100-221800-
SOUTHERN MARYLAND AND THE DELMARVA PENINSULA

CITY           SKY/WX    TMP DP  RH WIND       PRES   REMARKS
PATUXENT RIVER LGT RAIN  37  32  82 N8        30.22F FOG
BAY BRIDGE APT   N/A     36  30  80 N3        30.26F
LEONARDTOWN      N/A     36  32  87 MISG        N/A
DOVER          NOT AVBL
GEORGETOWN     CLOUDY    42  34  73 NE10      30.23F
EASTON         RAIN      37  36  93 NE6       30.28F
CAMBRIDGE      CLOUDY    37  32  81 NE6       30.22F
SALISBURY      LGT RAIN  43  37  79 NE8       30.20F
OCEAN CITY     LGT RAIN  45  40  82 NE10      30.21F
WALLOPS ISLAND LGT RAIN  43  41  93 E14       30.19F
ACCOMACK*      RAIN      43  41  93 NE16G22   30.15F
$$

NCZ012>017-030>032-221800-
NORTH CENTRAL AND EASTERN NORTH CAROLINA

CITY           SKY/WX    TMP DP  RH WIND       PRES   REMARKS
ROANOKE RAPIDS CLOUDY    37  37 100 N7        30.11F FOG
RALEIGH        DRIZZLE   38  35  89 N8        30.13F FOG
ELIZABETH CITY HVY RAIN  54  48  82 NE17G24   30.04F
AHOSKIE*       CLOUDY    42  41  95 N9        30.11S
EDENTON*       HVY RAIN  48  47  97 N9        30.05F
CURRITUCK*     RAIN     N/A N/A N/A NE14G20   30.07F
KILL DEVIL HLS HVY RAIN  53  53 100 NE12G17   30.00F
MANTEO         DRIZZLE   54  54  99 NE14      30.01F
CAPE HATTERAS  CLOUDY    60  60 100 SE14      29.97F FOG
TARBORO*       NOT AVBL
GOLDSBORO      NOT AVBL
WASHINGTON     CLOUDY    44  43  97 N9        30.06F
GREENVILLE     CLOUDY    45  43  93 NE10      30.09F
NEW BERN       LGT RAIN  49  45  86 N9        30.05F
WILMINGTON     CLOUDY    45  44  97 N7        30.04F
$$

VAZ048-221800-
ELSEWHERE

CITY           SKY/WX    TMP DP  RH WIND       PRES   REMARKS
HARRISBURG PA  CLOUDY    32  25  75 W6        30.27F
BALTIMORE      LGT RAIN  35  28  75 NE3       30.26F
ANNAPOLIS      LGT RAIN  35  28  75 N6        30.26
ANDREWS AFB    NOT AVBL
PHILADELPHIA   CLOUDY    41  31  67 E5        30.27F
HENDERSON NC   CLOUDY    36  34  94 N8        30.14F FOG
GREENSBORO     DRIZZLE   35  33  92 NE14      30.12F FOG
ROCKY MOUNT    CLOUDY    41  39  93 N10       30.11F FOG
$$

VAZ100-221800-
MARINE

STATION/POSITION TIME  TEMP    WIND        PRES    WAVE   SWELL
                       AIR SEA DIR/SP/G            HT/PER HT/PER
                 (UTC) (F)     (DEG/KT/KT) (MB)    (FT/S) (FT/S)
CAPE MAY NJ      1700   39 43   40/  2/  4 1023.7F
LEWES DE         1700   39 41   60/  9/ 10 1023.5F
15NM E FENWICK I 1700   46 45              1023.4F   2/ 3
OCEAN-CITY-INLET 1700   44 43   60/  6/ 10 1023.2F
WACHAPREAGUE VA  1700   44 40   40/ 15/ 20 1020.9F
THOMAS POINT MD  1700   35 41   20/  9/ 10 1025.2F
GOOSES REEF MD   1700   36     VRB 10/ 12  1023.3F
COVE POINT MD    1700   35      30/  8/  9 1023.6F
SOLOMONS ISLAND  1700      42                N/A
BISHOPS HEAD MD  1700   38 38   30/  8/ 12 1022.5F
POTOMAC MD       1700   38      40/ 14/ 16 1022.2F
CAMBRIDGE MD     1700   37 40   40/  7/ 10 1023.4F
LEWISETTA VA     1700   38 41   40/  8/ 11 1022.2F
RAPPAHANNOCK LGT 1700           30/ 15/ 18 1021.5F
STINGRAY PT      1700   41      40/ 16/ 17 1022.1F
YORK RVR RNG VA  1700   42      30/ 14/ 17 1020.0F
YORKTOWN VA      1700   42 44   30/ 11/ 13 1020.6F
JAMESTOWN VA     1700   39      30/  4/  6   N/A
DOMINION TERM VA 1700   45      30/  7/ 10 1020.3F
KIPTOPEKE VA     1700      48   80/ 13/ 18   N/A
CHES BAY BRIDGE  1700   47 46   40/ 23/ 26 1019.1F
CAPE HENRY VA    1700   47      30/ 19/ 22 1018.4F
CHESAPEAKE LGHT  1600   48      60/ 29/ 31 1020.5F
WILLOUBY STN VA  1700   45      40/ 16/ 17 1020.3F
S CRANEY ISL VA  1700           40/ 12/ 17 1019.7F
CAPE HENRY BUOY  1700      49                N/A     6/ 6
1ST LANDING BUOY 1700   47      60/ 21/ 25 1019.6F
CAPE CHARLES BUO 1700      47                N/A     5/ 6   2/10
64NM E OF VA BCH 1700   58 54   70/ 16/ 19 1018.2F   7/ 6   2/10
DUCK PIER NC     1700   50 46   30/ 26/ 29 1016.1F
44100 DUCK FRF   1700      51                N/A     7/ 6
44056 DUCK FRF   1700      47                N/A     6/ 6
OREGON INLET NC  1700   55 48   80/  8/ 12 1015.5F
HATTERAS NC      1700   62 51  150/ 10/ 15 1015.3F
DIAMOND SHLS NC  1700   69                 1014.5F  10/ 8
CAPE LOOKOUT NC  1600   52     350/ 10/ 12 1016.5F
$$



USA.gov is the U.S. government's official web portal to all federal, state and local government web resources and services.